Location: Godiavel Galaoual
(15.2485°N, 12.6604°W)
Time: 01:10:53
(UTC+00:00)

Transit 4A - Pass Details

Date: 16 June 2021
Orbit: 872 x 972 km, 66.8° (Epoch: 29 July)

Event Time Altitude Azimuth Distance (km) Brightness Sun altitude
Rises 08:55:07 0° 167° (SSE) 3,614 10.9 34.0°
Reaches altitude 10° 08:58:28 10° 150° (SSE) 2,653 10.5 34.8°
Maximum altitude 09:02:37 19° 107° (ESE) 2,067 10.8 35.7°
Drops below altitude 10° 09:06:41 10° 64° (ENE) 2,608 11.6 36.7°
Sets 09:09:55 0° 47° (NE) 3,532 11.7 37.4°
